Regional Weather Roundup
Issued by NWS

Home | Current Version | Previous Version | Text Only | Print | Product List | Glossary Off
Versions: 1 2 3 4 5 6 7 8 9 10 11 12 13 14 15 16 17 18 19 20 21 22 23 24 25 26 27 28 29 30 31 32 33 34 35 36 37 38 39 40 41 42 43 44 45 46 47 48 49 50

434
ASUS43 KMPX 211610
RWRMN
WEATHER ROUNDUP FOR MINNESOTA
NATIONAL WEATHER SERVICE TWIN CITIES/CHANHASSEN MN
1000 AM CST WED FEB 21 2018


NOTE: "FAIR" INDICATES FEW OR NO CLOUDS BELOW 12,000 FEET WITH NO
SIGNIFICANT WEATHER AND/OR OBSTRUCTIONS TO VISIBILITY. N/A MEANS
CURRENT SKY AND/OR WEATHER CONDITIONS ARE NOT AVAILABLE.

MNZ060>063-068>070-211700-
   Twin Cities Metro

CITY           SKY/WX    TMP DP  RH WIND       PRES   REMARKS
TWIN CITIES    FAIR       8   1  73 SW6       30.60R WCI  -2
ST PAUL        FAIR      10   0  63 CALM      30.61S
CRYSTAL        FAIR       8  -2  63 SW6       30.58R WCI  -2
BLAINE         SUNNY     10   1  67 SW6       30.57R WCI   1
LAKEVILLE      FAIR       7   0  72 W6        30.60R WCI  -3
EDEN PRAIRIE   FAIR       7  -2  66 SW6       30.59R WCI  -3
SOUTH ST PAUL  FAIR      10   1  67 SW5       30.60S WCI   1
LAKE ELMO      FAIR      10   3  72 CALM      30.59S
$$
MNZ001>005-007-008-013>017-022>024-027-028-211700-
   Northwest Minnesota

CITY           SKY/WX    TMP DP  RH WIND       PRES   REMARKS
BEMIDJI        FAIR       4  -5  66 W8        30.40R WCI  -9
HALLOCK        FAIR       0  -8  71 S6        30.39S WCI -12
ROSEAU         FAIR       1  -6  71 SW7       30.36F WCI -11
WARROAD        FAIR       3  -4  72 W9        30.36R WCI -11
THIEF RVR FALL FAIR      -1  -8  72 S9        30.42R WCI -16
CROOKSTON      FAIR      -2  -8  78 SW9       30.45F WCI -18
FOSSTON        FAIR      -2  -9  71 S12       30.43R WCI -20
DETROIT LAKES  FAIR       1  -6  71 SW7       30.46R WCI -11
MOORHEAD       FAIR      -6 -13  71 S10       30.51R WCI -23
PARK RAPIDS    FAIR       0  -2  91 CALM      30.43R
MAHNOMEN       FAIR      -3  -9  74 S12       30.45R WCI -21
$$
MNZ006-009>011-018-025>026-211700-
   North Central Minnesota

CITY           SKY/WX    TMP DP  RH WIND       PRES   REMARKS
BAUDETTE       FAIR       3  -4  72 SW8       30.36R WCI -10
FLAG ISLAND    FAIR       3  -4  72 SW9       30.33R WCI -11
INTL FALLS     FAIR       3  -2  79 W7        30.36S WCI  -9
WASKISH        FAIR       1  -6  71 SW13      30.39S WCI -16
BIG FORK       FAIR       5   0  78 SW8       30.38S WCI  -8
LONGVILLE      FAIR       3  -2  78 S3        30.43R
GRAND RAPIDS   FAIR       6  -4  63 W7        30.44R WCI  -6
CRANE LAKE     FAIR       3  -4  72 SW6       30.41R WCI  -8
ORR            FAIR       3  -6  66 S5        30.35R WCI  -6
COOK             N/A      5  -2  72 SW8       30.40R WCI  -8
WALKER         FAIR       7  -5  58 W7        30.42R WCI  -5
$$
MNZ012-019>021-037-211700-
   Northeast Minnesota

CITY           SKY/WX    TMP DP  RH WIND       PRES   REMARKS
DULUTH         FAIR       8  -2  63 W13       30.41R WCI  -8
ELY            FAIR       3  -2  78 SW6       30.37R WCI  -8
HIBBING        FAIR       3  -2  79 VRB3      30.40S
EVELETH        FAIR     N/A N/A N/A W6        30.40S
DULUTH HARBOR  FAIR       7   0  72 SW13      30.51R WCI  -9
TWO HARBORS    FAIR      18   3  53 W7        30.42R WCI   8
GRAND MARAIS     N/A     12   3  67 VRB7      30.45S WCI   1
G MARAIS ARPRT FAIR      10   0  61 W9        30.33R WCI  -2
$$
MNZ029>031-032-039>041-046>048-054>057-064-211700-
   West Central Minnesota

CITY           SKY/WX    TMP DP  RH WIND       PRES   REMARKS
FERGUS FALLS   FAIR      -2  -8  78 S5        30.53R WCI -12
WHEATON        SUNNY      0  -9  65 S6        30.54R WCI -12
MORRIS         SUNNY      3  -6  66 SW7       30.52R WCI  -9
ALEXANDRIA     FAIR       2  -6  69 SW6       30.49R WCI  -9
ELBOW LAKE     FAIR      -1  -7  76 SW7       30.51R HAZE    WCI -15
WADENA         FAIR       1  -8  66 SW6       30.46R WCI -10
GLENWOOD       FAIR       5  -2  72 SW7       30.51R WCI  -7
APPLETON       SUNNY      5  -8  56 CALM      30.54F
BENSON           N/A      3  -8  60 W6        30.55S WCI  -8
ORTONVILLE     SUNNY      7  -8  51 S3        30.54R
MADISON          N/A      7  -4  61 W3        30.55S
WILLMAR        FAIR       1  -6  71 W7        30.56S WCI -11
$$
MNZ033>034-036-042>043-049>051-058-059-211700-
   Central Minnesota

CITY           SKY/WX    TMP DP  RH WIND       PRES   REMARKS
ST CLOUD       FAIR       4  -3  73 SW7       30.54R WCI  -8
SAUK CENTRE    FAIR       4  -4  68 SW7       30.52R WCI  -8
PAYNESVILLE    FAIR       6   0  75 W7        30.53S WCI  -6
AITKIN         FAIR       5  -6  61 SW6       30.46R WCI  -6
PINE RIVER     FAIR       3  -2  78 SW5       30.48R WCI  -6
BRAINERD       FAIR       4  -4  69 SW8       30.48R WCI  -9
STAPLES        FAIR       3  -6  66 SW5       30.48R WCI  -6
LONG PRAIRIE   FAIR       5  -4  66 S6        30.50R WCI  -6
LITTLE FALLS   FAIR       5  -4  66 S3        30.52R
LITCHFIELD     FAIR       7   0  72 SW3       30.56R
BUFFALO        FAIR       7  -2  66 S7        30.59R WCI  -5
MAPLE LAKE     FAIR       8  -1  69 S6        30.58R WCI  -3
HUTCHINSON     FAIR       8  -1  68 S6        30.59R WCI  -3
$$
MNZ037-044-045-052-053-211700-
   East Central Minnesota

CITY           SKY/WX    TMP DP  RH WIND       PRES   REMARKS
PRINCETON      FAIR      10   0  61 CALM      30.55R
MORA           FAIR       7   0  72 SW3       30.54R
CAMBRIDGE      FAIR       9  -2  61 S7        30.57R WCI  -3
RUSH CITY      FAIR       7  -2  66 S5        30.57R WCI  -2
MOOSE LAKE     FAIR       7   0  72 SW5       30.48R WCI  -2
HINCKLEY       FAIR       7   3  85 S5        30.53R WCI  -2
CLOQUET        FAIR       7  -2  66 W9        30.44R WCI  -7
MCGREGOR       FAIR       9   0  66 S7        30.47R WCI  -3
$$
MNZ071>073-080-081-089-090-097-098-211700-
   Southwest Minnesota

CITY           SKY/WX    TMP DP  RH WIND       PRES   REMARKS
MONTEVIDEO     SUNNY     10  -2  56 NW3       30.56S
GRANITE FALLS  SUNNY      6  -3  65 SW6       30.60R WCI  -4
CANBY          SUNNY      8  -3  60 SW7       30.56R WCI  -3
MARSHALL       SUNNY     13   3  64 CALM      30.57R
REDWOOD FALLS  SUNNY      3  -4  72 S10       30.60R WCI -12
OLIVIA         SUNNY      9   0  66 SW8       30.57R WCI  -4
PIPESTONE      SUNNY      1  -6  71 CALM      30.52R
WORTHINGTON    SUNNY      8  -1  66 S8        30.59R WCI  -4
JACKSON        SUNNY      9   0  66 SW7       30.59R WCI  -3
TRACY          SUNNY      7  -1  67 SW7       30.56R WCI  -4
SLAYTON        SUNNY      4  -3  71 S8        30.57R WCI  -9
$$
MNZ065>067-074>077-082>085-091>093-211700-
   South Central Minnesota

CITY           SKY/WX    TMP DP  RH WIND       PRES   REMARKS
MANKATO        FAIR       9   0  67 W7        30.62R WCI  -2
NEW ULM        SUNNY      7  -4  61 SW8       30.61R WCI  -6
ST JAMES       SUNNY      7   0  72 SW7       30.63R WCI  -5
FAIRMONT       CLOUDY     9   0  67 W8        30.62R WCI  -3
GLENCOE        FAIR       8   0  70 SW6       30.59S WCI  -2
FARIBAULT      FAIR       9   1  72 W3        30.59S
OWATONNA       FAIR       7   0  72 CALM      30.59R
WASECA         FAIR       9   1  72 W6        30.61R WCI  -1
ALBERT LEA     FAIR      10   1  67 CALM      30.60R
$$
MNZ078>079-086>088-094>096-211700-
   Southeast Minnesota

CITY           SKY/WX    TMP DP  RH WIND       PRES   REMARKS
ROCHESTER      FAIR      10   6  84 W3        30.58R
RED WING       FAIR      10  -2  56 W3        30.61R
STANTON        FAIR       8   1  70 W5        30.59S WCI   0
DODGE CENTER   FAIR       9   1  72 CALM      30.58R
WINONA         FAIR      14   9  79 CALM      30.62R
AUSTIN         FAIR      12   3  67 CALM      30.59R
PRESTON        FAIR      12   5  74 CALM      30.59R
$$
ABBREVIATIONS USED IN REMARKS
   TC - TEMPERATURES IN CELSIUS
  WCI - WIND CHILL INDEX
   HX - HEAT INDEX
  VSB - VISIBILITY
$$




USA.gov is the U.S. government's official web portal to all federal, state and local government web resources and services.